HS6BUE-3 Weather Reports


Display with metric or nautical units.
time (UTC)temp
F
wind
direction
speed
MPH
gust
MPH
rain 1hr
in
rain 24hr
in
rain mn
in
humidity
%
barometer
mb
20260831105549 83 0 0.0 0.0 0.00 0.00 0.00 56 1001.0
20260831104527 83 0 0.0 0.0 0.00 0.00 0.00 56 1001.0
20260831103504 83 0 0.0 0.0 0.00 0.00 0.00 56 1001.0
20260831102441 83 0 0.0 0.0 0.00 0.00 0.00 53 1001.0
20260831101419 83 0 0.0 0.0 0.00 0.00 0.00 52 1001.0
20260831100356 83 0 0.0 0.0 0.00 0.00 0.00 51 1001.0
20260831095333 82 0 0.0 0.0 0.00 0.00 0.00 46 1001.0
20260831094311 82 0 0.0 0.0 0.00 0.00 0.00 44 1001.0
20260831093248 81 0 0.0 0.0 0.00 0.00 0.00 43 1001.0
20260831092225 80 0 0.0 0.0 0.00 0.00 0.00 42 1001.0
20260831091203 79 0 0.0 0.0 0.00 0.00 0.00 44 1000.0
20260831090140 79 0 0.0 0.0 0.00 0.00 0.00 47 1001.0
20260831085117 80 0 0.0 0.0 0.00 0.00 0.00 52 1001.0
20260831084055 78 0 0.0 0.0 0.00 0.00 0.00 42 1001.0
20260831083032 79 0 0.0 0.0 0.00 0.00 0.00 43 1001.0
20260831082009 79 0 0.0 0.0 0.00 0.00 0.00 47 1001.0
20260831080947 80 0 0.0 0.0 0.00 0.00 0.00 57 1001.0
20260831075924 80 0 0.0 0.0 0.00 0.00 0.00 52 1001.0
20260831074901 78 0 0.0 0.0 0.00 0.00 0.00 41 1001.0
20260831073839 79 0 0.0 0.0 0.00 0.00 0.00 43 1002.0
20260831072816 79 0 0.0 0.0 0.00 0.00 0.00 48 1002.0
20260831071753 80 0 0.0 0.0 0.00 0.00 0.00 50 1002.0
20260831070731 79 0 0.0 0.0 0.00 0.00 0.00 41 1002.0
20260831065708 79 0 0.0 0.0 0.00 0.00 0.00 43 1002.0
20260831064645 79 0 0.0 0.0 0.00 0.00 0.00 47 1002.0
20260831063623 80 0 0.0 0.0 0.00 0.00 0.00 50 1002.0
20260831062600 78 0 0.0 0.0 0.00 0.00 0.00 41 1002.0
20260831061537 79 0 0.0 0.0 0.00 0.00 0.00 42 1002.0
20260831060515 80 0 0.0 0.0 0.00 0.00 0.00 47 1003.0
20260831055452 80 0 0.0 0.0 0.00 0.00 0.00 52 1003.0
20260831054429 79 0 0.0 0.0 0.00 0.00 0.00 42 1003.0
20260831053407 79 0 0.0 0.0 0.00 0.00 0.00 45 1003.0
20260831052344 80 0 0.0 0.0 0.00 0.00 0.00 52 1003.0
20260831051321 79 0 0.0 0.0 0.00 0.00 0.00 42 1003.0
20260831050259 79 0 0.0 0.0 0.00 0.00 0.00 42 1003.0
20260831045236 79 0 0.0 0.0 0.00 0.00 0.00 43 1003.0
20260831044213 79 0 0.0 0.0 0.00 0.00 0.00 46 1003.0
20260831043151 80 0 0.0 0.0 0.00 0.00 0.00 52 1004.0
20260831042128 79 0 0.0 0.0 0.00 0.00 0.00 39 1004.0
20260831041105 79 0 0.0 0.0 0.00 0.00 0.00 39 1004.0
20260831040043 79 0 0.0 0.0 0.00 0.00 0.00 41 1004.0
20260831035020 79 0 0.0 0.0 0.00 0.00 0.00 43 1004.0
20260831033958 79 0 0.0 0.0 0.00 0.00 0.00 47 1004.0
20260831032935 79 0 0.0 0.0 0.00 0.00 0.00 49 1004.0
20260831031913 78 0 0.0 0.0 0.00 0.00 0.00 39 1004.0
20260831030850 78 0 0.0 0.0 0.00 0.00 0.00 40 1004.0
20260831025827 78 0 0.0 0.0 0.00 0.00 0.00 39 1004.0
20260831024804 78 0 0.0 0.0 0.00 0.00 0.00 39 1004.0
20260831023741 78 0 0.0 0.0 0.00 0.00 0.00 39 1004.0
20260831022719 78 0 0.0 0.0 0.00 0.00 0.00 39 1004.0
20260831021657 79 0 0.0 0.0 0.00 0.00 0.00 39 1004.0
20260831020634 79 0 0.0 0.0 0.00 0.00 0.00 40 1004.0
20260831015611 79 0 0.0 0.0 0.00 0.00 0.00 40 1004.0
20260831014549 79 0 0.0 0.0 0.00 0.00 0.00 41 1004.0
20260831013526 79 0 0.0 0.0 0.00 0.00 0.00 42 1004.0
20260831012503 80 0 0.0 0.0 0.00 0.00 0.00 44 1004.0
20260831011440 79 0 0.0 0.0 0.00 0.00 0.00 46 1004.0
20260831010418 80 0 0.0 0.0 0.00 0.00 0.00 51 1004.0
20260831005355 80 0 0.0 0.0 0.00 0.00 0.00 55 1003.0
20260831004332 81 0 0.0 0.0 0.00 0.00 0.00 56 1003.0
20260831003311 83 0 0.0 0.0 0.00 0.00 0.00 65 1003.0
20260831002248 86 0 0.0 0.0 0.00 0.00 0.00 77 1003.0
20260831001224 86 0 0.0 0.0 0.00 0.00 0.00 77 1003.0
20260831000203 85 0 0.0 0.0 0.00 0.00 0.00 78 1003.0
20260830235139 85 0 0.0 0.0 0.00 0.00 0.00 78 1003.0
20260830234116 85 0 0.0 0.0 0.00 0.00 0.00 77 1003.0
20260830233053 86 0 0.0 0.0 0.00 0.00 0.00 83 1002.0
20260830232031 86 0 0.0 0.0 0.00 0.00 0.00 82 1002.0
20260830231011 86 0 0.0 0.0 0.00 0.00 0.00 82 1002.0
20260830225946 86 0 0.0 0.0 0.00 0.00 0.00 82 1002.0
20260830225629 86 0 0.0 0.0 0.00 0.00 0.00 82 1002.0
20260830224607 86 0 0.0 0.0 0.00 0.00 0.00 82 1002.0
20260830223544 86 0 0.0 0.0 0.00 0.00 0.00 82 1002.0
20260830222521 86 0 0.0 0.0 0.00 0.00 0.00 82 1002.0
20260830221459 86 0 0.0 0.0 0.00 0.00 0.00 82 1002.0
20260830220437 86 0 0.0 0.0 0.00 0.00 0.00 82 1002.0
20260830215413 86 0 0.0 0.0 0.00 0.00 0.00 82 1002.0
20260830214351 86 0 0.0 0.0 0.00 0.00 0.00 82 1002.0
20260830213328 86 0 0.0 0.0 0.00 0.00 0.00 82 1002.0
20260830210320 86 0 0.0 0.0 0.00 0.00 0.00 82 1002.0
20260830205257 86 0 0.0 0.0 0.00 0.00 0.00 82 1002.0
20260830204235 86 0 0.0 0.0 0.00 0.00 0.00 82 1002.0
20260830203212 86 0 0.0 0.0 0.00 0.00 0.00 82 1002.0
20260830202149 86 0 0.0 0.0 0.00 0.00 0.00 82 1002.0
20260830201127 86 0 0.0 0.0 0.00 0.00 0.00 82 1002.0
20260830200104 86 0 0.0 0.0 0.00 0.00 0.00 82 1002.0
20260830195041 86 0 0.0 0.0 0.00 0.00 0.00 82 1002.0
20260830194019 86 0 0.0 0.0 0.00 0.00 0.00 82 1002.0
20260830192956 86 0 0.0 0.0 0.00 0.00 0.00 82 1002.0
20260830191933 86 0 0.0 0.0 0.00 0.00 0.00 82 1002.0
20260830190911 86 0 0.0 0.0 0.00 0.00 0.00 82 1002.0
20260830185848 86 0 0.0 0.0 0.00 0.00 0.00 82 1002.0
20260830184826 86 0 0.0 0.0 0.00 0.00 0.00 82 1003.0
20260830183803 86 0 0.0 0.0 0.00 0.00 0.00 82 1003.0
20260830182740 86 0 0.0 0.0 0.00 0.00 0.00 82 1003.0
20260830181718 87 0 0.0 0.0 0.00 0.00 0.00 82 1003.0
20260830180655 87 0 0.0 0.0 0.00 0.00 0.00 82 1003.0
20260830175632 87 0 0.0 0.0 0.00 0.00 0.00 81 1003.0
20260830174610 87 0 0.0 0.0 0.00 0.00 0.00 81 1003.0
20260830173547 87 0 0.0 0.0 0.00 0.00 0.00 82 1003.0
20260830172524 87 0 0.0 0.0 0.00 0.00 0.00 81 1003.0
20260830171502 87 0 0.0 0.0 0.00 0.00 0.00 82 1003.0
20260830170439 87 0 0.0 0.0 0.00 0.00 0.00 81 1003.0
20260830165416 87 0 0.0 0.0 0.00 0.00 0.00 82 1003.0
20260830164354 87 0 0.0 0.0 0.00 0.00 0.00 81 1003.0
20260830163331 87 0 0.0 0.0 0.00 0.00 0.00 81 1003.0
20260830162308 87 0 0.0 0.0 0.00 0.00 0.00 81 1004.0
20260830161246 87 0 0.0 0.0 0.00 0.00 0.00 81 1004.0
20260830160223 87 0 0.0 0.0 0.00 0.00 0.00 81 1004.0
20260830155200 87 0 0.0 0.0 0.00 0.00 0.00 81 1004.0
20260830154138 87 0 0.0 0.0 0.00 0.00 0.00 81 1004.0
20260830153115 87 0 0.0 0.0 0.00 0.00 0.00 80 1004.0
20260830152052 87 0 0.0 0.0 0.00 0.00 0.00 80 1004.0
20260830151030 87 0 0.0 0.0 0.00 0.00 0.00 80 1004.0
20260830150007 87 0 0.0 0.0 0.00 0.00 0.00 80 1004.0
20260830144944 87 0 0.0 0.0 0.00 0.00 0.00 80 1004.0
20260830143922 87 0 0.0 0.0 0.00 0.00 0.00 80 1004.0
20260830142859 87 0 0.0 0.0 0.00 0.00 0.00 80 1003.0
20260830141836 87 0 0.0 0.0 0.00 0.00 0.00 80 1003.0
20260830140814 87 0 0.0 0.0 0.00 0.00 0.00 80 1003.0
20260830135751 87 0 0.0 0.0 0.00 0.00 0.00 79 1003.0
20260830134728 87 0 0.0 0.0 0.00 0.00 0.00 79 1003.0
20260830133706 87 0 0.0 0.0 0.00 0.00 0.00 79 1003.0
20260830132643 87 0 0.0 0.0 0.00 0.00 0.00 79 1002.0
20260830131620 87 0 0.0 0.0 0.00 0.00 0.00 79 1002.0
20260830130558 87 0 0.0 0.0 0.00 0.00 0.00 79 1002.0
20260830125535 87 0 0.0 0.0 0.00 0.00 0.00 78 1002.0
20260830124512 87 0 0.0 0.0 0.00 0.00 0.00 78 1002.0
20260830123450 87 0 0.0 0.0 0.00 0.00 0.00 78 1002.0
20260830122427 87 0 0.0 0.0 0.00 0.00 0.00 78 1002.0
20260830121404 87 0 0.0 0.0 0.00 0.00 0.00 78 1002.0
20260830120342 87 0 0.0 0.0 0.00 0.00 0.00 79 1001.0
20260830115319 87 0 0.0 0.0 0.00 0.00 0.00 78 1001.0
20260830114256 87 0 0.0 0.0 0.00 0.00 0.00 78 1001.0
20260830113234 87 0 0.0 0.0 0.00 0.00 0.00 77 1001.0
20260830112211 88 0 0.0 0.0 0.00 0.00 0.00 77 1001.0
20260830111148 88 0 0.0 0.0 0.00 0.00 0.00 77 1001.0